Showing default

KUIPER-00147, 65768

Orbit data source: Space-Track

KUIPER-00147, 65768 is a payload satellite owned by Kuiper Systems (US) in LEO that was launched on Thu, 25 Sep 2025 UTC via an ATLAS V 551 launch vehicle from the Air Force Eastern Test Range (AFETR). Payload-class satellites include a variety of spacecraft equipped with specific instruments for various scientific and technological missions. These include communications satellites like Starlink; space stations such as the ISS; scientific satellites like the Hubble; Earth observation satellites from companies like Planet Labs, Umbra, and HawkEye 360; GPS; miniature CubeSats for education and research; and military/defense satellites.

Loading next visibility...
Identifier
65768, 2025-217G
Orbit
LEO
Country
Flag of USUS
Related business
Manufacturer
Kuiper Systems
Mission
Operational Commercial Communications
Bus & Motor
KUIPER, Unknown motor
Mass
~490 kg wet, ~490 kg dry
Launch date (UTC)
2025-09-25 (9 months ago)
Launch vehicle
ATLAS V 551
Launch site
Air Force Eastern Test Range (AFETR)
Object type
Payload
Rocket body
Debris
Shape & HBR
Box + 2 Pan, 3.4 m
Radar Cross Section
2.326 m², Large (>1 m²)

Expand to show TLE details & history
Last TLE update: 1 day ago

TLE from 1 day ago
0 KUIPER-00147
1 65768U 25217G   26170.68979277 -.00000464  00000-0 -31900-4 0  9993
2 65768  51.9003 309.5457 0000633 109.7511 250.3520 14.79929518 40018
Epoch: 2026-06-19T16:33Z
TLE epoch observation values (Epoch: 2026-06-19T16:33:18.095Z)
Latitude
0.00002°
Longitude
153.30516°
Altitude
630.443 km
Speed
7.544 km/s
True Right ascension
20h 38m 10s
True Declination
0° 00' 00"
Sunlit
Object was in full shadow at epoch
Visualization orbit readout
Latitude
Unknown
Longitude
Unknown
Altitude
Unknown
Speed
Unknown
Apparent Right ascension
Unknown
Apparent Declination
Unknown
Sunlit
N/A
Visualization observer readout
Local Sidereal Time
07:13:08
Azimuth
Unknown
Elevation
Unknown
Doppler factor
Unknown
Orbital elements
Apogee altitude
630.441 km
Perigee altitude
629.554 km
Semi-major axis
7,008.135 km
Eccentricity
0.00006
Inclination
51.9003°
RAAN
309.5457°
Arg. of periapsis
109.7511°
True anomaly
250.34517°
Mean anomaly
250.352°
Eccentric anomaly
250.34858°
Mean motion
3.69947 °/min
Orbital period
97.31 mins
BSTAR
-0.0000319
Loading maneuver chart data...
Computing Atmospheric mass density...
Loading historical data...
Loading historical data...
Loading historical data...
Loading historical data...
Loading historical data...
Loading historical data...
Loading historical data...

Documentation

Showing up to 5 results
|